MDT,Max TemperatureF,Mean TemperatureF,Min TemperatureF,Max Dew PointF,MeanDew PointF,Min DewpointF,Max Humidity, Mean Humidity, Min Humidity, Max Sea Level PressureIn, Mean Sea Level PressureIn, Min Sea Level PressureIn, Max VisibilityMiles, Mean VisibilityMiles, Min VisibilityMiles, Max Wind SpeedMPH, Mean Wind SpeedMPH, Max Gust SpeedMPH,PrecipitationIn, CloudCover, Events, WindDirDegrees
2013-7-1,83,71,59,58,55,51,84,60,36,30.28,30.15,30.10,10,9,4,21,10,25,0.08,5,Rain-Thunderstorm,124
2013-7-2,85,71,56,56,48,46,83,55,27,30.15,30.07,30.00,10,10,8,16,10,24,0.00,1,,121
2013-7-3,92,74,55,49,44,39,66,41,16,30.00,29.85,29.75,10,10,10,16,9,25,0.00,0,,108
2013-7-4,92,73,53,51,42,32,62,55,48,29.81,29.77,29.75,10,10,10,28,8,36,T,0,,46
2013-7-5,90,77,64,65,55,50,84,56,28,29.94,29.73,29.63,10,10,6,33,6,45,0.01,3,Rain-Thunderstorm,65
2013-7-6,95,78,61,60,55,42,87,53,18,29.81,29.74,29.67,10,10,10,22,8,26,T,0,,336
2013-7-7,91,78,64,62,57,51,87,57,27,30.04,29.87,29.81,10,10,10,18,7,24,0.07,1,Thunderstorm,102
2013-7-8,94,79,63,62,57,46,84,53,21,30.03,29.90,29.82,10,10,9,35,7,44,T,1,Rain-Thunderstorm,115
2013-7-9,98,78,58,61,56,43,93,55,16,30.12,29.98,29.90,10,10,10,16,7,20,0.00,0,Thunderstorm,24
2013-7-10,91,78,65,65,60,54,78,56,34,30.25,30.02,29.88,10,10,5,23,12,30,0.33,2,Rain-Thunderstorm,132
2013-7-11,100,82,63,63,58,51,93,57,21,29.94,29.80,29.68,10,10,10,25,13,32,0.00,0,,126
2013-7-12,94,81,67,67,59,52,90,58,26,30.09,29.84,29.70,10,10,7,21,7,29,0.10,3,Rain-Thunderstorm,268
2013-7-13,93,79,64,65,61,51,93,60,27,29.93,29.89,29.83,10,10,7,21,6,26,T,0,Rain,197
2013-7-14,80,73,65,65,61,32,93,76,58,30.22,30.08,29.90,10,10,7,20,8,24,0.03,7,Rain-Thunderstorm,9
2013-7-15,88,75,62,66,59,44,100,63,25,30.20,30.08,29.93,10,7,2,23,10,29,0.00,6,,141
2013-7-16,89,73,56,57,50,32,69,48,26,30.19,30.05,30.01,10,10,10,20,10,25,0.00,0,,136
2013-7-17,93,77,61,60,54,32,90,56,22,30.27,30.05,29.95,10,10,10,23,13,36,0.00,0,,143
2013-7-18,99,80,61,61,57,52,84,53,22,30.09,29.92,29.82,10,9,2,20,7,26,0.12,1,Thunderstorm,120
2013-7-19,88,77,65,63,56,48,73,51,29,30.13,29.98,29.91,10,10,10,16,9,22,T,2,Rain-Thunderstorm,151
2013-7-20,90,75,59,58,55,47,84,57,29,29.95,29.85,29.76,10,10,10,21,8,26,0.00,0,Thunderstorm,127
2013-7-21,92,76,59,61,55,46,84,57,30,30.02,29.80,29.67,10,10,10,22,11,29,0.00,1,,131
2013-7-22,92,77,61,61,58,52,68,52,36,29.96,29.80,29.71,10,10,10,22,10,31,0.00,1,,87
2013-7-23,90,76,62,60,56,54,81,56,31,30.01,29.91,29.79,10,10,10,18,9,32,0.00,0,,107
2013-7-24,89,76,62,63,58,51,93,64,34,30.19,30.02,29.94,10,10,8,32,11,43,0.01,1,Rain-Thunderstorm,129
2013-7-25,88,74,59,58,53,47,84,55,25,30.09,30.01,29.96,10,10,10,17,7,22,0.00,1,,73
2013-7-26,86,72,58,56,52,47,80,54,27,30.25,30.10,30.01,10,10,10,33,9,37,0.00,1,,96
2013-7-27,70,63,55,55,53,49,86,70,53,30.18,30.05,29.98,10,10,10,22,11,167,T,5,,125
2013-7-28,77,68,58,59,57,54,86,70,54,30.01,29.92,29.82,10,10,10,22,13,26,T,5,Rain,124
2013-7-29,81,70,58,63,60,57,93,71,48,30.04,29.96,29.85,10,9,2,16,5,21,0.03,5,Rain-Thunderstorm,88
2013-7-30,94,76,58,62,52,32,87,53,18,30.18,30.05,29.94,10,8,2,29,6,40,0.06,1,Rain-Thunderstorm,333
2013-7-31,90,73,56,65,57,45,100,61,21,30.31,30.14,30.03,10,10,4,24,4,31,0.04,2,Rain-Thunderstorm,11